W7BL Weather Reports


Display with metric or nautical units.
time (UTC)temp
F
wind
direction
speed
MPH
gust
MPH
rain 1hr
in
rain 24hr
in
rain mn
in
humidity
%
barometer
mb
20260505124829 54 89 2.0 6.0 0.00 0.00 0.00 65
20260505124326 57 126 3.0 6.0 0.00 0.00 0.00 60
20260505123822 58 226 6.0 6.0 0.00 0.00 0.00 59
20260505123318 58 250 5.0 6.0 0.00 0.00 0.00 59
20260505122815 59 186 3.0 6.0 0.00 0.00 0.00 58
20260505122312 59 250 5.0 9.0 0.00 0.00 0.00 58
20260505121808 59 228 3.0 8.0 0.00 0.00 0.00 57
20260505121306 59 246 5.0 10.0 0.00 0.00 0.00 57
20260505120802 59 213 3.0 11.0 0.00 0.00 0.00 57
20260505120258 59 234 6.0 6.0 0.00 0.00 0.00 57
20260505115756 59 210 3.0 7.0 0.00 0.00 0.00 57
20260505115254 58 259 2.0 5.0 0.00 0.00 0.00 57
20260505114751 58 224 2.0 6.0 0.00 0.00 0.00 57
20260505114247 58 230 5.0 5.0 0.00 0.00 0.00 57
20260505113744 58 301 2.0 4.0 0.00 0.00 0.00 57
20260505113241 57 227 4.0 7.0 0.00 0.00 0.00 59
20260505112737 57 106 2.0 4.0 0.00 0.00 0.00 58
20260505112235 55 107 3.0 5.0 0.00 0.00 0.00 62
20260505111735 55 108 2.0 3.0 0.00 0.00 0.00 60
20260505111231 56 70 2.0 4.0 0.00 0.00 0.00 59
20260505110727 59 88 3.0 4.0 0.00 0.00 0.00 55
20260505110225 60 159 1.0 5.0 0.00 0.00 0.00 52
20260505102200 55 106 2.0 3.0 0.00 0.00 0.00 61
20260505101659 55 215 2.0 5.0 0.00 0.00 0.00 63
20260505101154 54 115 2.0 4.0 0.00 0.00 0.00 64
20260505100650 53 78 3.0 3.0 0.00 0.00 0.00 66
20260505100148 53 63 3.0 3.0 0.00 0.00 0.00 66
20260505095643 54 75 1.0 4.0 0.00 0.00 0.00 64
20260505095141 54 130 2.0 3.0 0.00 0.00 0.00 63
20260505094637 54 35 2.0 2.0 0.00 0.00 0.00 64
20260505094133 54 129 0.0 2.0 0.00 0.00 0.00 63
20260505093630 55 205 2.0 2.0 0.00 0.00 0.00 62
20260505093127 54 269 0.0 5.0 0.00 0.00 0.00 63
20260505092624 55 141 0.0 3.0 0.00 0.00 0.00 62
20260505092123 55 110 2.0 3.0 0.00 0.00 0.00 61
20260505091619 57 102 2.0 4.0 0.00 0.00 0.00 57
20260505091118 58 63 4.0 4.0 0.00 0.00 0.00 55
20260505090615 59 122 1.0 5.0 0.00 0.00 0.00 54
20260505090113 58 249 9.0 10.0 0.00 0.00 0.00 56
20260505085610 57 166 0.0 6.0 0.00 0.00 0.00 58
20260505085109 55 33 6.0 6.0 0.00 0.00 0.00 61
20260505084606 55 88 3.0 4.0 0.00 0.00 0.00 61
20260505084104 54 310 3.0 3.0 0.00 0.00 0.00 65
20260505083601 53 83 2.0 3.0 0.00 0.00 0.00 65
20260505083057 53 134 1.0 3.0 0.00 0.00 0.00 65
20260505082553 53 162 1.0 1.0 0.00 0.00 0.00 66
20260505082050 54 89 0.0 3.0 0.00 0.00 0.00 65
20260505081547 54 127 2.0 3.0 0.00 0.00 0.00 66
20260505081044 54 162 1.0 2.0 0.00 0.00 0.00 66
20260505080540 54 160 0.0 1.0 0.00 0.00 0.00 66
20260505080037 54 6 0.0 1.0 0.00 0.00 0.00 66
20260505075533 54 89 2.0 2.0 0.00 0.00 0.00 66
20260505075030 54 139 1.0 1.0 0.00 0.00 0.00 67
20260505074527 54 129 0.0 1.0 0.00 0.00 0.00 66
20260505074024 54 106 0.0 2.0 0.00 0.00 0.00 65
20260505073521 55 69 0.0 0.0 0.00 0.00 0.00 64
20260505073020 55 35 0.0 2.0 0.00 0.00 0.00 64
20260505072515 55 48 2.0 3.0 0.00 0.00 0.00 63
20260505072011 55 106 2.0 2.0 0.00 0.00 0.00 63
20260505071507 56 132 1.0 2.0 0.00 0.00 0.00 61
20260505071005 55 154 2.0 2.0 0.00 0.00 0.00 65
20260505070502 55 173 0.0 1.0 0.00 0.00 0.00 65
20260505065957 55 47 0.0 2.0 0.00 0.00 0.00 64
20260505065454 55 196 0.0 2.0 0.00 0.00 0.00 64
20260505064951 55 222 0.0 2.0 0.00 0.00 0.00 64
20260505064448 55 145 0.0 0.0 0.00 0.00 0.00 62
20260505063946 56 47 2.0 2.0 0.00 0.00 0.00 62
20260505063442 56 72 2.0 3.0 0.00 0.00 0.00 60
20260505062939 57 165 1.0 2.0 0.00 0.00 0.00 60
20260505062436 57 94 1.0 2.0 0.00 0.00 0.00 59
20260505061933 57 78 2.0 2.0 0.00 0.00 0.00 58
20260505061431 57 129 0.0 2.0 0.00 0.00 0.00 57
20260505060928 57 25 2.0 2.0 0.00 0.00 0.00 59
20260505060425 58 180 1.0 1.0 0.00 0.00 0.00 58
20260505055921 59 143 0.0 2.0 0.00 0.00 0.00 56
20260505055418 60 129 2.0 2.0 0.00 0.00 0.00 54
20260505054914 60 119 1.0 2.0 0.00 0.00 0.00 52
20260505054412 61 129 2.0 2.0 0.00 0.00 0.00 51
20260505053910 62 64 5.0 5.0 0.00 0.00 0.00 50
20260505053407 63 92 3.0 3.0 0.00 0.00 0.00 48
20260505052903 64 32 2.0 2.0 0.00 0.00 0.00 45
20260505052400 65 127 0.0 5.0 0.00 0.00 0.00 44
20260505051857 65 259 2.0 3.0 0.00 0.00 0.00 44
20260505051354 65 89 0.0 4.0 0.00 0.00 0.00 44
20260505050853 66 157 2.0 3.0 0.00 0.00 0.00 43
20260505050351 66 349 2.0 9.0 0.00 0.00 0.00 42
20260505041318 67 220 3.0 9.0 0.00 0.00 0.00 41
20260505040815 67 230 7.0 12.0 0.00 0.00 0.00 40
20260505040313 67 245 5.0 9.0 0.00 0.00 0.00 40
20260505035809 66 215 0.0 8.0 0.00 0.00 0.00 41
20260505035305 67 334 4.0 8.0 0.00 0.00 0.00 40
20260505034803 67 234 3.0 7.0 0.00 0.00 0.00 40
20260505034259 67 203 8.0 9.0 0.00 0.00 0.00 40
20260505033756 67 230 9.0 12.0 0.00 0.00 0.00 39
20260505033253 67 241 4.0 5.0 0.00 0.00 0.00 39
20260505032751 67 184 2.0 4.0 0.00 0.00 0.00 40
20260505032247 67 316 4.0 4.0 0.00 0.00 0.00 39
20260505031744 68 322 0.0 4.0 0.00 0.00 0.00 39
20260505031241 68 288 2.0 5.0 0.00 0.00 0.00 39
20260505030738 68 280 3.0 6.0 0.00 0.00 0.00 38
20260505030234 69 257 4.0 11.0 0.00 0.00 0.00 37
20260505025730 69 234 8.0 13.0 0.00 0.00 0.00 36
20260505025228 69 234 9.0 10.0 0.00 0.00 0.00 36
20260505024726 69 223 8.0 13.0 0.00 0.00 0.00 36
20260505024223 70 239 2.0 6.0 0.00 0.00 0.00 35
20260505023720 70 243 14.0 15.0 0.00 0.00 0.00 34
20260505023217 70 236 8.0 13.0 0.00 0.00 0.00 34
20260505022715 71 236 4.0 12.0 0.00 0.00 0.00 34
20260505022211 71 245 10.0 13.0 0.00 0.00 0.00 33
20260505021708 71 265 6.0 9.0 0.00 0.00 0.00 32
20260505021205 71 247 11.0 15.0 0.00 0.00 0.00 32
20260505020701 71 249 6.0 13.0 0.00 0.00 0.00 32
20260505020157 71 252 7.0 14.0 0.00 0.00 0.00 30
20260505015654 72 334 2.0 12.0 0.00 0.00 0.00 31
20260505015151 73 265 5.0 11.0 0.00 0.00 0.00 30
20260505014648 74 319 3.0 13.0 0.00 0.00 0.00 30
20260505014145 74 249 3.0 11.0 0.00 0.00 0.00 30
20260505013642 74 266 3.0 16.0 0.00 0.00 0.00 30
20260505013139 75 238 6.0 9.0 0.00 0.00 0.00 30
20260505012637 75 287 3.0 11.0 0.00 0.00 0.00 29
20260505012134 75 295 3.0 12.0 0.00 0.00 0.00 29
20260505011630 75 246 7.0 14.0 0.00 0.00 0.00 29
20260505011128 75 247 5.0 20.0 0.00 0.00 0.00 28
20260505010627 76 264 5.0 12.0 0.00 0.00 0.00 28
20260505010125 76 303 9.0 13.0 0.00 0.00 0.00 26
20260505005620 77 230 3.0 9.0 0.00 0.00 0.00 28
20260505005118 76 241 7.0 12.0 0.00 0.00 0.00 28
20260505004615 76 250 6.0 18.0 0.00 0.00 0.00 27
20260505004112 76 298 14.0 16.0 0.00 0.00 0.00 27
20260505003609 77 294 7.0 11.0 0.00 0.00 0.00 27
20260505003106 77 243 6.0 13.0 0.00 0.00 0.00 28
20260505002602 76 331 5.0 13.0 0.00 0.00 0.00 29
20260505002101 77 316 3.0 13.0 0.00 0.00 0.00 29
20260505001557 77 324 2.0 13.0 0.00 0.00 0.00 29
20260505001055 78 251 10.0 12.0 0.00 0.00 0.00 29
20260505000552 77 246 9.0 15.0 0.00 0.00 0.00 30
20260505000049 77 235 8.0 21.0 0.00 0.00 0.00 30
20260504235546 76 295 5.0 19.0 0.00 0.00 0.00 29
20260504235043 78 315 6.0 13.0 0.00 0.00 0.00 29
20260504234540 77 293 10.0 14.0 0.00 0.00 0.00 30
20260504234037 78 296 3.0 12.0 0.00 0.00 0.00 29
20260504233532 76 285 7.0 16.0 0.00 0.00 0.00 31
20260504233029 78 286 5.0 14.0 0.00 0.00 0.00 30
20260504232526 77 297 4.0 9.0 0.00 0.00 0.00 30
20260504232024 77 288 7.0 15.0 0.00 0.00 0.00 31
20260504231520 77 235 6.0 21.0 0.00 0.00 0.00 30
20260504231016 77 254 4.0 12.0 0.00 0.00 0.00 30
20260504230513 77 240 9.0 15.0 0.00 0.00 0.00 29
20260504230012 78 281 11.0 13.0 0.00 0.00 0.00 29
20260504225508 77 276 7.0 14.0 0.00 0.00 0.00 29
20260504225005 77 224 8.0 22.0 0.00 0.00 0.00 28
20260504224502 77 250 8.0 15.0 0.00 0.00 0.00 28
20260504223959 77 251 17.0 26.0 0.00 0.00 0.00 27
20260504223455 77 242 15.0 17.0 0.00 0.00 0.00 26
20260504222951 76 294 8.0 17.0 0.00 0.00 0.00 26
20260504222449 77 293 9.0 20.0 0.00 0.00 0.00 26
20260504221946 78 238 14.0 19.0 0.00 0.00 0.00 26
20260504221443 77 299 13.0 19.0 0.00 0.00 0.00 25
20260504220940 78 316 10.0 13.0 0.00 0.00 0.00 23
20260504220436 76 12 6.0 21.0 0.00 0.00 0.00 24
20260504215934 76 284 11.0 22.0 0.00 0.00 0.00 23
20260504215431 76 309 8.0 25.0 0.00 0.00 0.00 22
20260504214927 77 320 14.0 21.0 0.00 0.00 0.00 24
20260504214423 77 349 9.0 18.0 0.00 0.00 0.00 25
20260504213920 77 306 12.0 26.0 0.00 0.00 0.00 24
20260504213416 78 287 6.0 18.0 0.00 0.00 0.00 24
20260504212914 77 323 10.0 18.0 0.00 0.00 0.00 25
20260504212409 78 315 17.0 20.0 0.00 0.00 0.00 27
20260504211908 78 318 9.0 16.0 0.00 0.00 0.00 28
20260504211403 77 266 16.0 20.0 0.00 0.00 0.00 27
20260504210900 78 9 16.0 22.0 0.00 0.00 0.00 26
20260504210357 77 317 10.0 20.0 0.00 0.00 0.00 27
20260504205854 78 8 10.0 17.0 0.00 0.00 0.00 25
20260504205352 77 15 11.0 20.0 0.00 0.00 0.00 29
20260504204850 78 305 10.0 15.0 0.00 0.00 0.00 29
20260504204349 78 313 6.0 13.0 0.00 0.00 0.00 27
20260504203848 77 307 7.0 18.0 0.00 0.00 0.00 27
20260504203344 78 317 15.0 22.0 0.00 0.00 0.00 27
20260504202840 78 326 10.0 16.0 0.00 0.00 0.00 28
20260504202337 78 329 9.0 23.0 0.00 0.00 0.00 27
20260504201833 78 295 13.0 18.0 0.00 0.00 0.00 27
20260504201331 79 335 3.0 12.0 0.00 0.00 0.00 28
20260504200828 77 239 6.0 13.0 0.00 0.00 0.00 29
20260504200325 78 257 6.0 18.0 0.00 0.00 0.00 29
20260504195821 78 267 5.0 11.0 0.00 0.00 0.00 31
20260504195317 78 315 7.0 13.0 0.00 0.00 0.00 30
20260504194814 77 296 3.0 13.0 0.00 0.00 0.00 31
20260504194310 76 322 12.0 17.0 0.00 0.00 0.00 29
20260504193806 78 304 9.0 14.0 0.00 0.00 0.00 29
20260504193304 77 251 7.0 10.0 0.00 0.00 0.00 29
20260504192802 77 298 6.0 12.0 0.00 0.00 0.00 32
20260504192300 78 284 7.0 14.0 0.00 0.00 0.00 29
20260504191758 77 23 8.0 16.0 0.00 0.00 0.00 29
20260504191255 77 294 9.0 10.0 0.00 0.00 0.00 37
20260504190750 77 20 4.0 6.0 0.00 0.00 0.00 37
20260504190247 76 347 4.0 15.0 0.00 0.00 0.00 39
20260504185744 77 37 4.0 8.0 0.00 0.00 0.00 33
20260504185241 75 42 2.0 16.0 0.00 0.00 0.00 34
20260504184737 77 259 5.0 11.0 0.00 0.00 0.00 36
20260504184233 77 16 6.0 7.0 0.00 0.00 0.00 39
20260504183729 77 243 6.0 14.0 0.00 0.00 0.00 35
20260504183226 75 288 1.0 13.0 0.00 0.00 0.00 38
20260504182724 73 229 6.0 6.0 0.00 0.00 0.00 46
20260504182221 73 104 2.0 6.0 0.00 0.00 0.00 47
20260504181718 72 44 3.0 5.0 0.00 0.00 0.00 46
20260504181216 71 42 6.0 8.0 0.00 0.00 0.00 47
20260504180715 70 26 4.0 9.0 0.00 0.00 0.00 50
20260504180213 71 11 3.0 5.0 0.00 0.00 0.00 48
20260504175710 69 103 4.0 12.0 0.00 0.00 0.00 49
20260504175207 72 40 5.0 6.0 0.00 0.00 0.00 46
20260504174704 69 28 2.0 5.0 0.00 0.00 0.00 50
20260504174202 68 47 4.0 5.0 0.00 0.00 0.00 51
20260504173658 68 224 1.0 4.0 0.00 0.00 0.00 50
20260504173155 68 29 7.0 8.0 0.00 0.00 0.00 50
20260504172652 67 23 2.0 5.0 0.00 0.00 0.00 51
20260504172148 66 39 4.0 5.0 0.00 0.00 0.00 53
20260504171645 65 23 5.0 6.0 0.00 0.00 0.00 53
20260504171143 66 142 4.0 5.0 0.00 0.00 0.00 52
20260504170638 65 38 3.0 7.0 0.00 0.00 0.00 53
20260504170136 66 357 1.0 3.0 0.00 0.00 0.00 50
20260504151027 57 29 3.0 4.0 0.00 0.00 0.00 59
20260504150525 56 109 3.0 4.0 0.00 0.00 0.00 61
20260504140951 50 39 3.0 3.0 0.00 0.00 0.00 76
20260504140447 49 53 4.0 6.0 0.00 0.00 0.00 73